Regional Weather Roundup
Issued by NWS Jackson, KY

Home | Current Version | Previous Version | Text Only | Print | Product List | Glossary On
Versions: 1 2 3 4 5 6 7 8 9 10 11 12 13 14 15 16 17 18 19 20 21 22 23 24 25 26 27 28 29 30 31 32 33 34 35 36 37 38 39 40 41 42 43 44 45 46 47 48 49 50
000
ASUS43 KJKL 101610
RWRJKL

EAST KENTUCKY HOURLY WEATHER ROUNDUP
NATIONAL WEATHER SERVICE JACKSON KY
1100 AM EST WED FEB 10 2016

NOTE: "FAIR" INDICATES FEW OR NO CLOUDS BELOW 12,000 FEET WITH
NO SIGNIFICANT WEATHER AND/OR OBSTRUCTIONS TO VISIBILITY.

* THESE REPORTS ARE NOT UNDER NWS QUALITY CONTROL AND MAY NOT
  REPORT WEATHER SUCH AS PRECIPITATION AND FOG.

KYZ079-080-083-085-087-088-110-112-115-119-120-101700
...EASTERN KENTUCKY...

CITY           SKY/WX    TMP DP  RH WIND       PRES   REMARKS
JACKSON        LGT SNOW  19  11  70 CALM      30.00R
LONDON         CLOUDY    18   7  62 W13       30.04S WCI   5
SOMERSET*      CLOUDY    19  10  68 W14G20    30.11R WCI   6
MONTICELLO*    FLURRIES  17   8  67 W15G25    30.13R WCI   2
WILLIAMSBURG*  CLOUDY    19  10  68 MISG      30.07R
MIDDLESBORO*   CLOUDY    21  10  64 W10       30.07R WCI   9
HARLAN APT*    CLOUDY    19  12  73 W16G22    30.01R VSB 1   WCI   5
HAZARD APT*    LGT SNOW  19  12  73 W10       30.01R WCI   8
BLACK MTN*       N/A     10   9  92 SW1         N/A
BIG SANDY*     CLOUDY    20   9  64 W14       29.99S WCI   6
MOREHEAD APT*  CLOUDY    18   7  62 W9        30.04R WCI   6
$$

KYZ035-036-041-042-044-050-067-078-099-101700
...CENTRAL KENTUCKY...

CITY           SKY/WX    TMP DP  RH WIND       PRES   REMARKS
MT STERLING*   CLOUDY    19  10  68 NW8       30.04S WCI   9
DANVILLE*      LGT SNOW  18  12  79 NW12      30.08R WCI   5
RICHMOND*      CLOUDY    18   9  68 W13G21    30.05R WCI   4
LEXINGTON      LGT SNOW  17  10  74 W12       30.05R WCI   4
FRANKFORT      LGT SNOW  17   8  67 W14G21    30.07R WCI   3
$$

KYZ091>093-OHZ055-061-077-WVZ005-015-034-035-042-101700
...SOUTHERN OHIO/WEST VIRGINIA...

CITY           SKY/WX    TMP DP  RH WIND       PRES   REMARKS
COVINGTON      LGT SNOW  16   9  74 W15       30.01R BLWGSNOWWCI   1
COLUMBUS       LGT SNOW  17  11  77 W14       29.92R WCI   3
DAYTON         LGT SNOW  16  10  77 W20G25    29.95R WCI  -1
WILMINGTON     LGT SNOW  15   9  76 W17       29.95R WCI  -1
HUNTINGTON     FLURRIES  20  10  65 VRB7      30.00R WCI  11
CHARLESTON     FLURRIES  20   8  60 W12G22    29.97S WCI   8
PINEVILLE*     LGT SNOW  19  10  68 MISG      29.97R
BECKLEY        LGT SNOW  14   6  70 W14       29.84S WCI  -1
$$

VAZ002-007-008-TNZ017-027-036-066-071-101700
...SOUTHWEST VIRGINIA/EAST TENNESSEE...

CITY           SKY/WX    TMP DP  RH WIND       PRES   REMARKS
BRISTOL        CLOUDY    20   7  57 W18G29    30.00R WCI   5
KNOXVILLE      PTSUNNY   23   8  52 W13G23    30.11R WCI  11
OAK RIDGE      CLOUDY    25   7  46 W8G22     30.12R WCI  16
CROSSVILLE     MOSUNNY   17   5  59 W13G24    30.05R WCI   4
NASHVILLE      MOSUNNY   23   9  55 W13       30.21R WCI  11
$$

...KEY TO REMARKS...
VSB - VISIBILITY IN MILES
WCI - WIND CHILL INDEX
HX  - HEAT INDEX

$$



USA.gov is the U.S. government's official web portal to all federal, state and local government web resources and services.